Terminal Aerodrome Forecast
Issued by NWS

Home | Current Version | Previous Version | Text Only | Print | Product List | Glossary On
Versions: 1 2 3 4 5 6 7 8 9 10 11 12 13
000
FTAK31 PAJN 262300
TAFAYA
TAF
PAYA 262337Z 2700/2724 10006KT 6SM -SHRASN BR BKN015 OVC035
      TEMPO 2700/2702 4SM -SHSNRA BR
     FM270200 VRB06KT P6SM VCSH SCT020 BKN050
     FM270600 VRB03KT P6SM SCT070
     FM271400 00000KT 6SM BR SCT005
     FM271700 00000KT P6SM SKC
      AMD LTD TO CLD VIS AND WIND 2701/2710=

USA.gov is the U.S. government's official web portal to all federal, state and local government web resources and services.